Time,TemperatureF,DewpointF,PressureIn,WindDirection,WindDirectionDegrees,WindSpeedMPH,WindSpeedGustMPH,Humidity,HourlyPrecipIn,Conditions,Clouds,dailyrainin,SoftwareType,DateUTC
2013-06-13 00:01:00,71.7,48.0,29.85,NW,319,0.0,0.0,43,0.00,CLR,,0.00,WeatherDisplay:10.37,2013-06-13 07:01:00,
2013-06-13 00:06:00,71.4,47.7,29.85,NW,316,0.0,0.0,43,0.00,CLR,,0.00,WeatherDisplay:10.37,2013-06-13 07:06:00,
2013-06-13 00:11:00,71.3,48.3,29.85,NW,316,0.0,0.0,44,0.00,CLR,,0.00,WeatherDisplay:10.37,2013-06-13 07:11:00,
2013-06-13 00:16:00,71.2,48.8,29.85,NW,316,0.0,0.0,45,0.00,CLR,,0.00,WeatherDisplay:10.37,2013-06-13 07:16:00,
2013-06-13 00:21:00,71.1,48.7,29.85,NW,316,0.0,0.0,45,0.00,CLR,,0.00,WeatherDisplay:10.37,2013-06-13 07:21:00,
2013-06-13 00:26:00,70.9,49.1,29.85,NW,316,0.0,0.0,46,0.00,CLR,,0.00,WeatherDisplay:10.37,2013-06-13 07:26:00,
2013-06-13 00:31:00,70.8,49.6,29.85,NW,316,0.0,0.0,47,0.00,CLR,,0.00,WeatherDisplay:10.37,2013-06-13 07:31:00,
2013-06-13 00:36:00,70.6,50.0,29.85,NW,316,0.0,0.0,48,0.00,CLR,,0.00,WeatherDisplay:10.37,2013-06-13 07:36:00,
2013-06-13 00:41:00,70.4,50.3,29.86,NW,316,0.0,0.0,49,0.00,CLR,,0.00,WeatherDisplay:10.37,2013-06-13 07:41:00,
2013-06-13 00:46:00,70.1,51.7,29.86,NW,316,0.0,0.0,52,0.00,CLR,,0.00,WeatherDisplay:10.37,2013-06-13 07:46:00,
2013-06-13 00:51:00,69.7,50.8,29.86,NW,316,0.0,0.0,51,0.00,CLR,,0.00,WeatherDisplay:10.37,2013-06-13 07:51:00,
2013-06-13 00:56:00,69.3,50.9,29.86,NW,316,0.0,0.0,52,0.00,CLR,,0.00,WeatherDisplay:10.37,2013-06-13 07:56:00,
2013-06-13 01:01:00,68.9,51.1,29.86,NW,316,0.0,0.0,53,0.00,CLR,,0.00,WeatherDisplay:10.37,2013-06-13 08:01:00,
2013-06-13 01:06:00,68.7,51.9,29.86,NW,316,0.0,0.0,55,0.00,CLR,,0.00,WeatherDisplay:10.37,2013-06-13 08:06:00,
2013-06-13 01:11:00,68.4,51.6,29.86,NW,316,0.0,0.0,55,0.00,CLR,,0.00,WeatherDisplay:10.37,2013-06-13 08:11:00,
2013-06-13 01:16:00,68.1,52.3,29.86,NW,316,0.0,0.0,57,0.00,CLR,,0.00,WeatherDisplay:10.37,2013-06-13 08:16:00,
2013-06-13 01:21:00,67.8,52.0,29.86,NW,316,0.0,0.0,57,0.00,CLR,,0.00,WeatherDisplay:10.37,2013-06-13 08:21:00,
2013-06-13 01:26:00,67.4,50.7,29.86,NW,316,0.0,0.0,55,0.00,CLR,,0.00,WeatherDisplay:10.37,2013-06-13 08:26:00,
2013-06-13 01:31:00,67.2,51.0,29.86,NW,316,0.0,0.0,56,0.00,CLR,,0.00,WeatherDisplay:10.37,2013-06-13 08:31:00,
2013-06-13 01:36:00,67.1,51.4,29.86,NW,316,0.0,0.0,57,0.00,CLR,,0.00,WeatherDisplay:10.37,2013-06-13 08:36:00,
2013-06-13 01:41:00,67.3,51.5,29.86,NW,316,0.0,0.0,57,0.00,CLR,,0.00,WeatherDisplay:10.37,2013-06-13 08:41:00,
2013-06-13 01:46:00,67.2,50.5,29.87,NW,316,0.0,0.0,55,0.00,CLR,,0.00,WeatherDisplay:10.37,2013-06-13 08:46:00,
2013-06-13 01:51:00,66.9,49.2,29.87,NW,316,0.0,0.0,53,0.00,CLR,,0.00,WeatherDisplay:10.37,2013-06-13 08:51:00,
2013-06-13 01:56:00,66.7,50.5,29.87,NW,316,0.0,0.0,56,0.00,CLR,,0.00,WeatherDisplay:10.37,2013-06-13 08:56:00,
2013-06-13 02:01:00,66.4,50.7,29.87,NW,316,0.0,0.0,57,0.00,CLR,,0.00,WeatherDisplay:10.37,2013-06-13 09:01:00,
2013-06-13 02:06:00,66.0,48.9,29.87,NW,316,0.0,0.0,54,0.00,CLR,,0.00,WeatherDisplay:10.37,2013-06-13 09:06:00,
2013-06-13 02:11:00,65.8,48.7,29.87,NW,316,0.0,0.0,54,0.00,CLR,,0.00,WeatherDisplay:10.37,2013-06-13 09:11:00,
2013-06-13 02:16:00,65.6,50.4,29.87,NW,316,0.0,0.0,58,0.00,CLR,,0.00,WeatherDisplay:10.37,2013-06-13 09:16:00,
2013-06-13 02:21:00,65.4,49.3,29.87,NW,316,0.0,0.0,56,0.00,CLR,,0.00,WeatherDisplay:10.37,2013-06-13 09:21:00,
2013-06-13 02:26:00,65.1,48.0,29.87,NW,316,0.0,0.0,54,0.00,CLR,,0.00,WeatherDisplay:10.37,2013-06-13 09:26:00,
2013-06-13 02:31:00,64.9,49.8,29.87,NW,316,0.0,0.0,58,0.00,CLR,,0.00,WeatherDisplay:10.37,2013-06-13 09:31:00,
2013-06-13 02:36:00,64.7,48.2,29.87,NW,316,0.0,0.0,55,0.00,CLR,,0.00,WeatherDisplay:10.37,2013-06-13 09:36:00,
2013-06-13 02:41:00,64.5,48.4,29.87,NW,316,0.0,0.0,56,0.00,CLR,,0.00,WeatherDisplay:10.37,2013-06-13 09:41:00,
2013-06-13 02:46:00,64.2,48.2,29.87,NW,316,0.0,0.0,56,0.00,CLR,,0.00,WeatherDisplay:10.37,2013-06-13 09:46:00,
2013-06-13 02:51:00,64.1,48.1,29.88,NW,316,0.0,0.0,56,0.00,CLR,,0.00,WeatherDisplay:10.37,2013-06-13 09:51:00,
2013-06-13 02:56:00,63.9,47.4,29.88,NW,316,0.0,0.0,55,0.00,CLR,,0.00,WeatherDisplay:10.37,2013-06-13 09:56:00,
2013-06-13 03:01:00,63.9,49.7,29.88,NW,316,0.0,0.0,60,0.00,CLR,,0.00,WeatherDisplay:10.37,2013-06-13 10:01:00,
2013-06-13 03:06:00,63.8,49.2,29.88,NW,317,0.0,0.0,59,0.00,CLR,,0.00,WeatherDisplay:10.37,2013-06-13 10:06:00,
2013-06-13 03:11:00,63.6,49.0,29.87,NW,317,0.0,0.0,59,0.00,CLR,,0.00,WeatherDisplay:10.37,2013-06-13 10:11:00,
2013-06-13 03:16:00,63.3,48.3,29.88,NW,317,0.0,0.0,58,0.00,CLR,,0.00,WeatherDisplay:10.37,2013-06-13 10:16:00,
2013-06-13 03:21:00,63.0,48.4,29.88,NW,317,0.0,0.0,59,0.00,CLR,,0.00,WeatherDisplay:10.37,2013-06-13 10:21:00,
2013-06-13 03:26:00,62.7,48.6,29.88,NW,316,0.0,0.0,60,0.00,CLR,,0.00,WeatherDisplay:10.37,2013-06-13 10:26:00,
2013-06-13 03:31:00,62.4,47.9,29.88,NW,317,0.0,0.0,59,0.00,CLR,,0.00,WeatherDisplay:10.37,2013-06-13 10:31:00,
2013-06-13 03:36:00,62.2,49.0,29.88,NW,316,0.0,0.0,62,0.00,CLR,,0.00,WeatherDisplay:10.37,2013-06-13 10:36:00,
2013-06-13 03:41:00,62.1,48.5,29.88,NW,317,0.0,0.0,61,0.00,CLR,,0.00,WeatherDisplay:10.37,2013-06-13 10:41:00,
2013-06-13 03:46:00,62.0,48.0,29.88,NW,318,0.0,0.0,60,0.00,CLR,,0.00,WeatherDisplay:10.37,2013-06-13 10:46:00,
2013-06-13 03:51:00,61.8,48.2,29.88,NW,318,0.0,0.0,61,0.00,CLR,,0.00,WeatherDisplay:10.37,2013-06-13 10:51:00,
2013-06-13 03:56:00,61.7,48.1,29.89,NW,317,0.0,0.0,61,0.00,CLR,,0.00,WeatherDisplay:10.37,2013-06-13 10:56:00,
2013-06-13 04:01:00,61.5,47.0,29.89,NW,318,0.0,0.0,59,0.00,CLR,,0.00,WeatherDisplay:10.37,2013-06-13 11:01:00,
2013-06-13 04:06:00,61.3,46.4,29.89,NW,318,0.0,0.0,58,0.00,CLR,,0.00,WeatherDisplay:10.37,2013-06-13 11:06:00,
2013-06-13 04:11:00,61.2,46.3,29.89,NW,317,0.0,0.0,58,0.00,CLR,,0.00,WeatherDisplay:10.37,2013-06-13 11:11:00,
2013-06-13 04:16:00,61.1,46.7,29.89,NW,317,0.0,0.0,59,0.00,CLR,,0.00,WeatherDisplay:10.37,2013-06-13 11:16:00,
2013-06-13 04:21:00,61.1,47.1,29.90,NW,317,0.0,0.0,60,0.00,CLR,,0.00,WeatherDisplay:10.37,2013-06-13 11:21:00,
2013-06-13 04:26:00,60.9,46.0,29.90,NW,318,0.0,0.0,58,0.00,CLR,,0.00,WeatherDisplay:10.37,2013-06-13 11:26:00,
2013-06-13 04:31:00,60.7,46.7,29.90,NW,317,0.0,0.0,60,0.00,CLR,,0.00,WeatherDisplay:10.37,2013-06-13 11:31:00,
2013-06-13 04:36:00,60.4,46.9,29.90,NW,317,0.0,0.0,61,0.00,CLR,,0.00,WeatherDisplay:10.37,2013-06-13 11:36:00,
2013-06-13 04:41:00,60.1,46.6,29.90,NW,317,0.0,0.0,61,0.00,CLR,,0.00,WeatherDisplay:10.37,2013-06-13 11:41:00,
2013-06-13 04:46:00,60.0,46.5,29.91,NW,317,0.0,0.0,61,0.00,CLR,,0.00,WeatherDisplay:10.37,2013-06-13 11:46:00,
2013-06-13 04:51:00,59.8,46.7,29.91,NW,317,0.0,0.0,62,0.00,CLR,,0.00,WeatherDisplay:10.37,2013-06-13 11:51:00,
2013-06-13 04:56:00,59.9,46.4,29.91,NW,317,0.0,0.0,61,0.00,CLR,,0.00,WeatherDisplay:10.37,2013-06-13 11:56:00,
2013-06-13 05:01:00,60.0,44.7,29.91,NW,317,0.0,0.0,57,0.00,CLR,,0.00,WeatherDisplay:10.37,2013-06-13 12:01:00,
2013-06-13 05:06:00,59.9,44.2,29.91,NW,318,0.0,0.0,56,0.00,CLR,,0.00,WeatherDisplay:10.37,2013-06-13 12:06:00,
2013-06-13 05:11:00,59.8,45.0,29.92,NW,318,0.0,0.0,58,0.00,CLR,,0.00,WeatherDisplay:10.37,2013-06-13 12:11:00,
2013-06-13 05:16:00,59.7,44.9,29.92,NW,317,0.0,0.0,58,0.00,CLR,,0.00,WeatherDisplay:10.37,2013-06-13 12:16:00,
2013-06-13 05:21:00,59.5,45.2,29.92,NW,317,0.0,0.0,59,0.00,CLR,,0.00,WeatherDisplay:10.37,2013-06-13 12:21:00,
2013-06-13 05:26:00,59.3,45.0,29.92,NW,317,0.0,0.0,59,0.00,CLR,,0.00,WeatherDisplay:10.37,2013-06-13 12:26:00,
2013-06-13 05:31:00,59.3,45.8,29.92,NW,317,0.0,0.0,61,0.00,CLR,,0.00,WeatherDisplay:10.37,2013-06-13 12:31:00,
2013-06-13 05:36:00,59.1,45.7,29.93,NW,317,0.0,0.0,61,0.00,CLR,,0.00,WeatherDisplay:10.37,2013-06-13 12:36:00,
2013-06-13 05:41:00,58.9,45.5,29.93,NW,317,0.0,0.0,61,0.00,CLR,,0.00,WeatherDisplay:10.37,2013-06-13 12:41:00,
2013-06-13 05:46:00,58.7,46.5,29.93,NW,318,0.0,0.0,64,0.00,CLR,,0.00,WeatherDisplay:10.37,2013-06-13 12:46:00,
2013-06-13 05:51:00,58.5,46.4,29.93,NW,317,0.0,0.0,64,0.00,CLR,,0.00,WeatherDisplay:10.37,2013-06-13 12:51:00,
2013-06-13 05:56:00,58.3,46.6,29.93,NW,317,0.0,0.0,65,0.00,CLR,,0.00,WeatherDisplay:10.37,2013-06-13 12:56:00,
2013-06-13 06:01:00,58.2,47.3,29.93,NW,317,0.0,0.0,67,0.00,CLR,,0.00,WeatherDisplay:10.37,2013-06-13 13:01:00,
2013-06-13 06:06:00,58.0,46.3,29.93,NW,317,0.0,0.0,65,0.00,CLR,,0.00,WeatherDisplay:10.37,2013-06-13 13:06:00,
2013-06-13 06:11:00,57.9,47.0,29.94,NW,317,0.0,0.0,67,0.00,CLR,,0.00,WeatherDisplay:10.37,2013-06-13 13:11:00,
2013-06-13 06:16:00,57.9,47.0,29.94,NW,317,0.0,0.0,67,0.00,CLR,,0.00,WeatherDisplay:10.37,2013-06-13 13:16:00,
2013-06-13 06:21:00,57.9,47.0,29.94,NW,317,0.0,0.0,67,0.00,CLR,,0.00,WeatherDisplay:10.37,2013-06-13 13:21:00,
2013-06-13 06:26:00,57.9,47.0,29.94,NW,317,0.0,0.0,67,0.00,CLR,,0.00,WeatherDisplay:10.37,2013-06-13 13:26:00,
2013-06-13 06:31:00,58.0,46.7,29.94,NW,317,0.0,0.0,66,0.00,CLR,,0.00,WeatherDisplay:10.37,2013-06-13 13:31:00,
2013-06-13 06:36:00,58.2,46.5,29.95,NW,318,0.0,0.0,65,0.00,CLR,,0.00,WeatherDisplay:10.37,2013-06-13 13:36:00,
2013-06-13 06:41:00,58.4,46.3,29.95,NW,317,0.0,0.0,64,0.00,CLR,,0.00,WeatherDisplay:10.37,2013-06-13 13:41:00,
2013-06-13 06:46:00,58.7,46.1,29.95,NW,317,0.0,0.0,63,0.00,CLR,,0.00,WeatherDisplay:10.37,2013-06-13 13:46:00,
2013-06-13 06:51:00,59.0,46.4,29.95,NW,317,0.0,0.0,63,0.00,CLR,,0.00,WeatherDisplay:10.37,2013-06-13 13:51:00,
2013-06-13 06:56:00,59.3,45.0,29.95,NW,318,0.0,0.0,59,0.00,CLR,,0.00,WeatherDisplay:10.37,2013-06-13 13:56:00,
2013-06-13 07:01:00,59.8,45.9,29.95,NW,317,0.0,0.0,60,0.00,CLR,,0.00,WeatherDisplay:10.37,2013-06-13 14:01:00,
2013-06-13 07:06:00,60.1,45.7,29.96,NW,317,0.0,0.0,59,0.00,CLR,,0.00,WeatherDisplay:10.37,2013-06-13 14:06:00,
2013-06-13 07:11:00,60.4,44.2,29.96,NW,318,0.0,0.0,55,0.00,CLR,,0.00,WeatherDisplay:10.37,2013-06-13 14:11:00,
2013-06-13 07:16:00,60.8,45.5,29.96,NW,318,0.0,0.0,57,0.00,CLR,,0.00,WeatherDisplay:10.37,2013-06-13 14:16:00,
2013-06-13 07:21:00,61.2,44.9,29.97,NW,318,0.0,0.0,55,0.00,CLR,,0.00,WeatherDisplay:10.37,2013-06-13 14:21:00,
2013-06-13 07:26:00,61.7,43.4,29.97,NW,317,0.0,0.0,51,0.00,CLR,,0.00,WeatherDisplay:10.37,2013-06-13 14:26:00,
2013-06-13 07:31:00,62.2,43.8,29.97,West,277,0.0,0.0,51,0.00,CLR,,0.00,WeatherDisplay:10.37,2013-06-13 14:31:00,
2013-06-13 07:36:00,62.6,43.2,29.97,West,277,0.0,0.0,49,0.00,CLR,,0.00,WeatherDisplay:10.37,2013-06-13 14:36:00,
2013-06-13 07:41:00,63.0,43.5,29.97,West,277,0.0,0.0,49,0.00,CLR,,0.00,WeatherDisplay:10.37,2013-06-13 14:41:00,
2013-06-13 07:46:00,63.2,43.2,29.98,West,274,0.0,0.0,48,0.00,CLR,,0.00,WeatherDisplay:10.37,2013-06-13 14:46:00,
2013-06-13 07:51:00,63.5,44.0,29.98,West,273,1.2,0.0,49,0.00,CLR,,0.00,WeatherDisplay:10.37,2013-06-13 14:51:00,
2013-06-13 07:56:00,63.8,43.7,29.98,WSW,243,0.0,0.0,48,0.00,CLR,,0.00,WeatherDisplay:10.37,2013-06-13 14:56:00,
2013-06-13 08:01:00,64.1,43.4,29.98,WSW,249,1.2,0.0,47,0.00,CLR,,0.00,WeatherDisplay:10.37,2013-06-13 15:01:00,
2013-06-13 08:06:00,64.5,44.9,29.98,WSW,249,0.0,0.0,49,0.00,CLR,,0.00,WeatherDisplay:10.37,2013-06-13 15:06:00,
2013-06-13 08:11:00,64.7,43.4,29.98,WSW,249,0.0,0.0,46,0.00,CLR,,0.00,WeatherDisplay:10.37,2013-06-13 15:11:00,
2013-06-13 08:16:00,65.0,43.1,29.98,WSW,238,1.2,0.0,45,0.00,CLR,,0.00,WeatherDisplay:10.37,2013-06-13 15:16:00,
2013-06-13 08:21:00,65.3,44.0,29.98,WSW,237,0.0,0.0,46,0.00,CLR,,0.00,WeatherDisplay:10.37,2013-06-13 15:21:00,
2013-06-13 08:26:00,65.7,43.2,29.98,WSW,237,0.0,0.0,44,0.00,CLR,,0.00,WeatherDisplay:10.37,2013-06-13 15:26:00,
2013-06-13 08:31:00,66.1,43.5,29.98,WSW,238,0.0,0.0,44,0.00,CLR,,0.00,WeatherDisplay:10.37,2013-06-13 15:31:00,
2013-06-13 08:36:00,66.4,45.0,29.98,WSW,238,0.0,0.0,46,0.00,CLR,,0.00,WeatherDisplay:10.37,2013-06-13 15:36:00,
2013-06-13 08:41:00,66.8,43.6,29.99,SW,218,0.0,0.0,43,0.00,CLR,,0.00,WeatherDisplay:10.37,2013-06-13 15:41:00,
2013-06-13 08:46:00,67.1,44.4,29.98,SW,218,0.0,0.0,44,0.00,CLR,,0.00,WeatherDisplay:10.37,2013-06-13 15:46:00,
2013-06-13 08:51:00,67.4,43.5,29.99,SW,218,0.0,0.0,42,0.00,CLR,,0.00,WeatherDisplay:10.37,2013-06-13 15:51:00,
2013-06-13 08:56:00,67.5,45.4,29.99,SW,217,0.0,0.0,45,0.00,CLR,,0.00,WeatherDisplay:10.37,2013-06-13 15:56:00,
2013-06-13 09:01:00,68.0,45.9,29.99,SW,215,0.0,0.0,45,0.00,CLR,,0.00,WeatherDisplay:10.37,2013-06-13 16:01:00,
2013-06-13 09:06:00,68.5,45.1,29.99,NW,305,1.2,1.2,43,0.00,CLR,,0.00,WeatherDisplay:10.37,2013-06-13 16:06:00,
2013-06-13 09:11:00,68.9,44.9,29.99,SE,139,1.2,0.0,42,0.00,CLR,,0.00,WeatherDisplay:10.37,2013-06-13 16:11:00,
2013-06-13 09:16:00,69.2,45.7,29.99,South,170,1.2,1.2,43,0.00,CLR,,0.00,WeatherDisplay:10.37,2013-06-13 16:16:00,
2013-06-13 09:21:00,69.3,44.6,29.99,West,267,1.0,1.0,41,0.00,CLR,,0.00,WeatherDisplay:10.37,2013-06-13 16:21:00,
2013-06-13 09:26:00,69.4,44.7,29.99,WSW,257,0.0,0.0,41,0.00,CLR,,0.00,WeatherDisplay:10.37,2013-06-13 16:26:00,
2013-06-13 09:31:00,69.6,44.8,29.99,WNW,283,1.2,0.0,41,0.00,CLR,,0.00,WeatherDisplay:10.37,2013-06-13 16:31:00,
2013-06-13 09:36:00,69.7,44.9,29.99,NNW,343,1.2,0.0,41,0.00,CLR,,0.00,WeatherDisplay:10.37,2013-06-13 16:36:00,
2013-06-13 09:41:00,70.1,44.6,29.99,North,356,1.2,1.2,40,0.00,CLR,,0.00,WeatherDisplay:10.37,2013-06-13 16:41:00,
2013-06-13 09:46:00,70.4,46.2,29.99,North,3,1.2,1.2,42,0.00,CLR,,0.00,WeatherDisplay:10.37,2013-06-13 16:46:00,
2013-06-13 09:51:00,70.9,46.0,29.99,South,186,1.2,0.0,41,0.00,CLR,,0.00,WeatherDisplay:10.37,2013-06-13 16:51:00,
2013-06-13 09:56:00,71.0,46.7,29.99,West,274,1.0,0.0,42,0.00,CLR,,0.00,WeatherDisplay:10.37,2013-06-13 16:56:00,
2013-06-13 10:01:00,71.2,46.3,29.99,WSW,240,1.2,0.0,41,0.00,CLR,,0.00,WeatherDisplay:10.37,2013-06-13 17:01:00,
2013-06-13 10:06:00,71.6,46.0,29.99,West,259,1.2,1.2,40,0.00,CLR,,0.00,WeatherDisplay:10.37,2013-06-13 17:06:00,
2013-06-13 10:11:00,71.9,46.3,29.99,WSW,238,1.2,1.2,40,0.00,CLR,,0.00,WeatherDisplay:10.37,2013-06-13 17:11:00,
2013-06-13 10:16:00,72.6,45.5,29.99,SSW,201,1.2,1.2,38,0.00,CLR,,0.00,WeatherDisplay:10.37,2013-06-13 17:16:00,
2013-06-13 10:21:00,72.8,45.7,29.99,NNW,341,2.3,2.3,38,0.00,CLR,,0.00,WeatherDisplay:10.37,2013-06-13 17:21:00,
2013-06-13 10:26:00,73.5,44.2,29.99,NW,322,3.5,3.5,35,0.00,CLR,,0.00,WeatherDisplay:10.37,2013-06-13 17:26:00,
2013-06-13 10:31:00,74.1,42.3,29.99,West,274,4.6,4.6,32,0.00,CLR,,0.00,WeatherDisplay:10.37,2013-06-13 17:31:00,
2013-06-13 10:36:00,74.7,43.7,29.99,ESE,108,2.3,2.3,33,0.00,CLR,,0.00,WeatherDisplay:10.37,2013-06-13 17:36:00,
2013-06-13 10:41:00,75.2,42.5,29.99,South,188,2.3,2.3,31,0.00,CLR,,0.00,WeatherDisplay:10.37,2013-06-13 17:41:00,
2013-06-13 10:46:00,75.5,42.7,29.99,WSW,256,3.5,3.5,31,0.00,CLR,,0.00,WeatherDisplay:10.37,2013-06-13 17:46:00,
2013-06-13 10:51:00,75.8,43.8,29.99,WSW,246,2.3,2.3,32,0.00,CLR,,0.00,WeatherDisplay:10.37,2013-06-13 17:51:00,
2013-06-13 10:56:00,76.4,43.5,29.99,SSW,204,3.5,3.5,31,0.00,CLR,,0.00,WeatherDisplay:10.37,2013-06-13 17:56:00,
2013-06-13 11:01:00,76.5,43.6,29.99,NNW,345,2.0,2.0,31,0.00,CLR,,0.00,WeatherDisplay:10.37,2013-06-13 18:01:00,
2013-06-13 11:06:00,77.0,41.4,29.99,NW,311,2.3,2.3,28,0.00,CLR,,0.00,WeatherDisplay:10.37,2013-06-13 18:06:00,
2013-06-13 11:11:00,77.3,41.6,29.99,NE,39,2.3,2.3,28,0.00,CLR,,0.00,WeatherDisplay:10.37,2013-06-13 18:11:00,
2013-06-13 11:16:00,77.5,41.8,29.99,NW,324,3.5,3.5,28,0.00,CLR,,0.00,WeatherDisplay:10.37,2013-06-13 18:16:00,
2013-06-13 11:21:00,77.8,42.1,29.99,NW,319,2.3,2.3,28,0.00,CLR,,0.00,WeatherDisplay:10.37,2013-06-13 18:21:00,
2013-06-13 11:26:00,78.2,42.4,29.99,NW,313,3.5,3.5,28,0.00,CLR,,0.00,WeatherDisplay:10.37,2013-06-13 18:26:00,
2013-06-13 11:31:00,78.4,42.6,29.99,WNW,288,3.5,3.5,28,0.00,CLR,,0.00,WeatherDisplay:10.37,2013-06-13 18:31:00,
2013-06-13 11:36:00,78.8,40.0,29.99,NNE,23,2.3,2.3,25,0.00,CLR,,0.00,WeatherDisplay:10.37,2013-06-13 18:36:00,
2013-06-13 11:41:00,78.7,39.9,29.99,NW,325,2.3,2.3,25,0.00,CLR,,0.00,WeatherDisplay:10.37,2013-06-13 18:41:00,
2013-06-13 11:46:00,78.7,41.9,29.98,North,11,2.3,2.3,27,0.00,CLR,,0.00,WeatherDisplay:10.37,2013-06-13 18:46:00,
2013-06-13 11:51:00,79.6,41.7,29.98,NNW,345,2.3,2.3,26,0.00,CLR,,0.00,WeatherDisplay:10.37,2013-06-13 18:51:00,
2013-06-13 11:56:00,80.0,42.0,29.98,ENE,67,1.2,1.2,26,0.00,CLR,,0.00,WeatherDisplay:10.37,2013-06-13 18:56:00,
2013-06-13 12:01:00,80.3,40.2,29.98,NNW,347,4.6,4.6,24,0.00,CLR,,0.00,WeatherDisplay:10.37,2013-06-13 19:01:00,
2013-06-13 12:06:00,80.3,42.3,29.98,WSW,257,1.2,1.2,26,0.00,CLR,,0.00,WeatherDisplay:10.37,2013-06-13 19:06:00,
2013-06-13 12:11:00,81.0,37.4,29.98,NNW,330,3.5,3.5,21,0.00,CLR,,0.00,WeatherDisplay:10.37,2013-06-13 19:11:00,
2013-06-13 12:16:00,81.1,38.6,29.98,SW,215,2.3,2.3,22,0.00,CLR,,0.00,WeatherDisplay:10.37,2013-06-13 19:16:00,
2013-06-13 12:21:00,82.1,38.3,29.98,NW,305,3.5,3.5,21,0.00,CLR,,0.00,WeatherDisplay:10.37,2013-06-13 19:21:00,
2013-06-13 12:26:00,82.9,38.9,29.98,WSW,252,3.5,3.5,21,0.00,CLR,,0.00,WeatherDisplay:10.37,2013-06-13 19:26:00,
2013-06-13 12:31:00,83.2,39.2,29.97,WSW,252,2.0,2.0,21,0.00,CLR,,0.00,WeatherDisplay:10.37,2013-06-13 19:31:00,
2013-06-13 12:36:00,83.3,38.0,29.98,SW,226,3.5,3.5,20,0.00,CLR,,0.00,WeatherDisplay:10.37,2013-06-13 19:36:00,
2013-06-13 12:41:00,83.6,37.0,29.97,North,5,3.5,3.5,19,0.00,CLR,,0.00,WeatherDisplay:10.37,2013-06-13 19:41:00,
2013-06-13 12:46:00,83.7,39.6,29.97,SSW,210,3.5,3.5,21,0.00,CLR,,0.00,WeatherDisplay:10.37,2013-06-13 19:46:00,
2013-06-13 12:51:00,84.0,41.1,29.97,WSW,257,2.3,2.3,22,0.00,CLR,,0.00,WeatherDisplay:10.37,2013-06-13 19:51:00,
2013-06-13 12:56:00,85.1,40.8,29.97,West,278,1.0,1.5,21,0.00,CLR,,0.00,WeatherDisplay:10.37,2013-06-13 19:56:00,
2013-06-13 13:01:00,85.0,38.1,29.97,NNW,330,2.3,2.3,19,0.00,CLR,,0.00,WeatherDisplay:10.37,2013-06-13 20:01:00,
2013-06-13 13:06:00,84.6,39.1,29.97,North,351,2.3,2.3,20,0.00,CLR,,0.00,WeatherDisplay:10.37,2013-06-13 20:06:00,
2013-06-13 13:11:00,85.4,39.8,29.96,NW,320,1.2,1.2,20,0.00,CLR,,0.00,WeatherDisplay:10.37,2013-06-13 20:11:00,
2013-06-13 13:16:00,86.0,40.2,29.96,NNE,15,3.5,3.5,20,0.00,CLR,,0.00,WeatherDisplay:10.37,2013-06-13 20:16:00,
2013-06-13 13:21:00,85.4,38.4,29.96,NNE,24,2.3,2.3,19,0.00,CLR,,0.00,WeatherDisplay:10.37,2013-06-13 20:21:00,
2013-06-13 13:26:00,85.2,42.1,29.96,WNW,294,3.5,3.5,22,0.00,CLR,,0.00,WeatherDisplay:10.37,2013-06-13 20:26:00,
2013-06-13 13:31:00,86.2,36.3,29.96,WNW,285,2.0,2.0,17,0.00,CLR,,0.00,WeatherDisplay:10.37,2013-06-13 20:31:00,
2013-06-13 13:36:00,86.8,39.6,29.95,West,271,1.2,1.2,19,0.00,CLR,,0.00,WeatherDisplay:10.37,2013-06-13 20:36:00,
2013-06-13 13:41:00,86.8,40.9,29.95,NNW,330,4.6,4.6,20,0.00,CLR,,0.00,WeatherDisplay:10.37,2013-06-13 20:41:00,
2013-06-13 13:46:00,86.9,41.0,29.95,West,266,2.3,2.3,20,0.00,CLR,,0.00,WeatherDisplay:10.37,2013-06-13 20:46:00,
2013-06-13 13:51:00,88.0,40.6,29.94,WNW,290,1.2,1.2,19,0.00,CLR,,0.00,WeatherDisplay:10.37,2013-06-13 20:51:00,
2013-06-13 13:56:00,88.6,38.2,29.94,NW,315,3.0,3.0,17,0.00,CLR,,0.00,WeatherDisplay:10.37,2013-06-13 20:56:00,
2013-06-13 14:01:00,87.7,40.3,29.94,West,259,2.0,2.0,19,0.00,CLR,,0.00,WeatherDisplay:10.37,2013-06-13 21:01:00,
2013-06-13 14:06:00,88.0,40.6,29.94,North,358,3.5,3.5,19,0.00,CLR,,0.00,WeatherDisplay:10.37,2013-06-13 21:06:00,
2013-06-13 14:11:00,88.4,39.5,29.94,WSW,240,3.5,3.5,18,0.00,CLR,,0.00,WeatherDisplay:10.37,2013-06-13 21:11:00,
2013-06-13 14:16:00,88.7,42.5,29.93,SW,214,2.3,0.0,20,0.00,CLR,,0.00,WeatherDisplay:10.37,2013-06-13 21:16:00,
2013-06-13 14:21:00,88.7,41.1,29.94,NNE,12,2.3,2.3,19,0.00,CLR,,0.00,WeatherDisplay:10.37,2013-06-13 21:21:00,
2013-06-13 14:26:00,88.9,41.3,29.93,SSE,164,2.3,2.3,19,0.00,CLR,,0.00,WeatherDisplay:10.37,2013-06-13 21:26:00,
2013-06-13 14:31:00,89.4,40.3,29.93,WSW,240,3.5,3.5,18,0.00,CLR,,0.00,WeatherDisplay:10.37,2013-06-13 21:31:00,
2013-06-13 14:36:00,89.7,43.3,29.93,West,281,0.0,0.2,20,0.00,CLR,,0.00,WeatherDisplay:10.37,2013-06-13 21:36:00,
2013-06-13 14:41:00,89.2,41.5,29.93,North,8,3.5,3.5,19,0.00,CLR,,0.00,WeatherDisplay:10.37,2013-06-13 21:41:00,
2013-06-13 14:46:00,88.3,42.1,29.93,West,264,2.3,2.3,20,0.00,CLR,,0.00,WeatherDisplay:10.37,2013-06-13 21:46:00,
2013-06-13 14:51:00,89.0,41.4,29.92,NW,323,2.3,2.3,19,0.00,CLR,,0.00,WeatherDisplay:10.37,2013-06-13 21:51:00,
2013-06-13 14:56:00,88.2,44.5,29.92,NNW,347,4.0,4.0,22,0.00,CLR,,0.00,WeatherDisplay:10.37,2013-06-13 21:56:00,
2013-06-13 15:01:00,87.9,39.1,29.92,NW,315,3.5,3.5,18,0.00,CLR,,0.00,WeatherDisplay:10.37,2013-06-13 22:01:00,
2013-06-13 15:06:00,87.5,42.8,29.92,SSW,195,3.5,3.5,21,0.00,CLR,,0.00,WeatherDisplay:10.37,2013-06-13 22:06:00,
2013-06-13 15:11:00,87.9,40.5,29.92,North,4,3.5,3.5,19,0.00,CLR,,0.00,WeatherDisplay:10.37,2013-06-13 22:11:00,
2013-06-13 15:16:00,88.0,41.9,29.91,South,191,1.2,1.2,20,0.00,CLR,,0.00,WeatherDisplay:10.37,2013-06-13 22:16:00,
2013-06-13 15:21:00,89.2,42.9,29.91,ESE,120,3.5,3.5,20,0.00,CLR,,0.00,WeatherDisplay:10.37,2013-06-13 22:21:00,
2013-06-13 15:26:00,89.8,42.0,29.91,WNW,285,1.2,1.2,19,0.00,CLR,,0.00,WeatherDisplay:10.37,2013-06-13 22:26:00,
2013-06-13 15:31:00,90.2,41.0,29.91,North,352,3.5,3.5,18,0.00,CLR,,0.00,WeatherDisplay:10.37,2013-06-13 22:31:00,
2013-06-13 15:36:00,90.1,39.4,29.91,WNW,300,1.2,2.2,17,0.00,CLR,,0.00,WeatherDisplay:10.37,2013-06-13 22:36:00,
2013-06-13 15:41:00,90.0,37.8,29.90,NW,312,2.3,2.3,16,0.00,CLR,,0.00,WeatherDisplay:10.37,2013-06-13 22:41:00,
2013-06-13 15:46:00,89.6,39.0,29.90,West,267,2.3,2.3,17,0.00,CLR,,0.00,WeatherDisplay:10.37,2013-06-13 22:46:00,
2013-06-13 15:51:00,89.7,39.1,29.90,WNW,297,3.5,3.5,17,0.00,CLR,,0.00,WeatherDisplay:10.37,2013-06-13 22:51:00,
2013-06-13 15:56:00,90.6,39.8,29.90,NW,308,3.5,3.5,17,0.00,CLR,,0.00,WeatherDisplay:10.37,2013-06-13 22:56:00,
2013-06-13 16:01:00,90.7,39.9,29.89,ENE,65,3.0,3.0,17,0.00,CLR,,0.00,WeatherDisplay:10.37,2013-06-13 23:01:00,
2013-06-13 16:06:00,90.4,39.6,29.89,WNW,302,5.8,5.8,17,0.00,CLR,,0.00,WeatherDisplay:10.37,2013-06-13 23:06:00,
2013-06-13 16:11:00,90.0,40.8,29.89,SSW,201,2.3,2.3,18,0.00,CLR,,0.00,WeatherDisplay:10.37,2013-06-13 23:11:00,
2013-06-13 16:16:00,90.4,39.6,29.89,NNE,33,2.0,2.0,17,0.00,CLR,,0.00,WeatherDisplay:10.37,2013-06-13 23:16:00,
2013-06-13 16:21:00,89.9,39.2,29.88,North,356,5.8,5.8,17,0.00,CLR,,0.00,WeatherDisplay:10.37,2013-06-13 23:21:00,
2013-06-13 16:26:00,89.6,41.9,29.88,WSW,252,2.3,2.3,19,0.00,CLR,,0.00,WeatherDisplay:10.37,2013-06-13 23:26:00,
2013-06-13 16:31:00,90.1,40.9,29.88,West,274,3.5,3.5,18,0.00,CLR,,0.00,WeatherDisplay:10.37,2013-06-13 23:31:00,
2013-06-13 16:36:00,90.4,38.1,29.88,NNE,24,5.0,5.0,16,0.00,CLR,,0.00,WeatherDisplay:10.37,2013-06-13 23:36:00,
2013-06-13 16:41:00,90.3,39.6,29.88,West,278,1.2,1.7,17,0.00,CLR,,0.00,WeatherDisplay:10.37,2013-06-13 23:41:00,
2013-06-13 16:46:00,90.0,40.8,29.88,ENE,72,4.6,4.6,18,0.00,CLR,,0.00,WeatherDisplay:10.37,2013-06-13 23:46:00,
2013-06-13 16:51:00,90.5,39.7,29.88,NW,322,3.5,3.5,17,0.00,CLR,,0.00,WeatherDisplay:10.37,2013-06-13 23:51:00,
2013-06-13 16:56:00,90.5,38.2,29.87,NE,56,3.5,3.5,16,0.00,CLR,,0.00,WeatherDisplay:10.37,2013-06-13 23:56:00,
2013-06-13 17:01:00,90.5,39.7,29.87,NNE,24,4.0,4.0,17,0.00,CLR,,0.00,WeatherDisplay:10.37,2013-06-14 00:01:00,
2013-06-13 17:06:00,90.6,39.8,29.87,North,359,3.5,3.5,17,0.00,CLR,,0.00,WeatherDisplay:10.37,2013-06-14 00:06:00,
2013-06-13 17:11:00,90.6,39.8,29.87,ENE,61,2.3,2.3,17,0.00,CLR,,0.00,WeatherDisplay:10.37,2013-06-14 00:11:00,
2013-06-13 17:16:00,90.5,36.5,29.87,WNW,300,3.5,3.5,15,0.00,CLR,,0.00,WeatherDisplay:10.37,2013-06-14 00:16:00,
2013-06-13 17:21:00,90.6,39.8,29.86,NW,315,2.3,2.3,17,0.00,CLR,,0.00,WeatherDisplay:10.37,2013-06-14 00:21:00,
2013-06-13 17:26:00,90.8,38.4,29.86,West,276,2.3,2.3,16,0.00,CLR,,0.00,WeatherDisplay:10.37,2013-06-14 00:26:00,
2013-06-13 17:31:00,90.4,38.1,29.86,North,359,4.6,4.6,16,0.00,CLR,,0.00,WeatherDisplay:10.37,2013-06-14 00:31:00,
2013-06-13 17:36:00,90.6,36.6,29.86,NNW,333,3.0,3.0,15,0.00,CLR,,0.00,WeatherDisplay:10.37,2013-06-14 00:36:00,
2013-06-13 17:41:00,90.4,38.1,29.86,North,11,3.5,3.5,16,0.00,CLR,,0.00,WeatherDisplay:10.37,2013-06-14 00:41:00,
2013-06-13 17:46:00,89.5,38.9,29.86,South,170,4.6,4.6,17,0.00,CLR,,0.00,WeatherDisplay:10.37,2013-06-14 00:46:00,
2013-06-13 17:51:00,89.7,40.6,29.86,WSW,252,3.5,3.5,18,0.00,CLR,,0.00,WeatherDisplay:10.37,2013-06-14 00:51:00,
2013-06-13 17:56:00,90.1,39.4,29.86,NNW,333,3.5,3.5,17,0.00,CLR,,0.00,WeatherDisplay:10.37,2013-06-14 00:56:00,
2013-06-13 18:01:00,89.8,40.6,29.86,NNE,22,2.3,2.3,18,0.00,CLR,,0.00,WeatherDisplay:10.37,2013-06-14 01:01:00,
2013-06-13 18:06:00,89.5,38.9,29.86,NW,322,4.6,4.6,17,0.00,CLR,,0.00,WeatherDisplay:10.37,2013-06-14 01:06:00,
2013-06-13 18:11:00,89.1,38.6,29.86,ESE,123,3.5,3.5,17,0.00,CLR,,0.00,WeatherDisplay:10.37,2013-06-14 01:11:00,
2013-06-13 18:16:00,89.1,38.6,29.86,North,356,2.3,2.3,17,0.00,CLR,,0.00,WeatherDisplay:10.37,2013-06-14 01:16:00,
2013-06-13 18:21:00,89.1,37.1,29.86,West,278,4.6,4.6,16,0.00,CLR,,0.00,WeatherDisplay:10.37,2013-06-14 01:21:00,
2013-06-13 18:26:00,89.3,38.8,29.86,North,349,4.6,4.6,17,0.00,CLR,,0.00,WeatherDisplay:10.37,2013-06-14 01:26:00,
2013-06-13 18:31:00,88.9,36.9,29.86,North,350,4.0,4.0,16,0.00,CLR,,0.00,WeatherDisplay:10.37,2013-06-14 01:31:00,
2013-06-13 18:36:00,88.4,38.0,29.86,SSE,167,2.3,2.3,17,0.00,CLR,,0.00,WeatherDisplay:10.37,2013-06-14 01:36:00,
2013-06-13 18:41:00,88.5,38.1,29.86,East,90,2.3,2.3,17,0.00,CLR,,0.00,WeatherDisplay:10.37,2013-06-14 01:41:00,
2013-06-13 18:46:00,88.3,40.8,29.86,WSW,244,3.5,3.5,19,0.00,CLR,,0.00,WeatherDisplay:10.37,2013-06-14 01:46:00,
2013-06-13 18:51:00,88.2,40.7,29.86,SW,226,3.5,3.5,19,0.00,CLR,,0.00,WeatherDisplay:10.37,2013-06-14 01:51:00,
2013-06-13 18:56:00,87.9,41.8,29.86,SW,231,2.3,2.3,20,0.00,CLR,,0.00,WeatherDisplay:10.37,2013-06-14 01:56:00,
2013-06-13 19:01:00,87.6,41.6,29.86,NNE,33,2.3,2.3,20,0.00,CLR,,0.00,WeatherDisplay:10.37,2013-06-14 02:01:00,
2013-06-13 19:06:00,87.0,43.6,29.86,NW,319,2.3,2.3,22,0.00,CLR,,0.00,WeatherDisplay:10.37,2013-06-14 02:06:00,
2013-06-13 19:11:00,86.3,43.0,29.86,North,359,1.2,1.2,22,0.00,CLR,,0.00,WeatherDisplay:10.37,2013-06-14 02:11:00,
2013-06-13 19:16:00,85.5,43.5,29.86,SSE,156,1.2,1.2,23,0.00,CLR,,0.00,WeatherDisplay:10.37,2013-06-14 02:16:00,
2013-06-13 19:21:00,84.9,43.0,29.86,NNE,19,0.0,0.4,23,0.00,CLR,,0.00,WeatherDisplay:10.37,2013-06-14 02:21:00,
2013-06-13 19:26:00,84.4,43.7,29.86,WNW,302,1.2,1.2,24,0.00,CLR,,0.00,WeatherDisplay:10.37,2013-06-14 02:26:00,
2013-06-13 19:31:00,83.9,43.2,29.87,WSW,246,2.3,2.3,24,0.00,CLR,,0.00,WeatherDisplay:10.37,2013-06-14 02:31:00,
2013-06-13 19:36:00,83.4,42.8,29.86,North,358,2.3,2.3,24,0.00,CLR,,0.00,WeatherDisplay:10.37,2013-06-14 02:36:00,
2013-06-13 19:41:00,82.9,43.5,29.86,NNW,336,1.2,0.0,25,0.00,CLR,,0.00,WeatherDisplay:10.37,2013-06-14 02:41:00,
2013-06-13 19:46:00,82.6,44.2,29.87,NNW,333,0.0,0.0,26,0.00,CLR,,0.00,WeatherDisplay:10.37,2013-06-14 02:46:00,
2013-06-13 19:51:00,82.2,43.9,29.86,NNW,345,0.0,0.0,26,0.00,CLR,,0.00,WeatherDisplay:10.37,2013-06-14 02:51:00,
2013-06-13 19:56:00,81.9,44.6,29.86,North,4,0.0,0.0,27,0.00,CLR,,0.00,WeatherDisplay:10.37,2013-06-14 02:56:00,
2013-06-13 20:01:00,81.5,45.2,29.86,NNW,348,1.2,0.0,28,0.00,CLR,,0.00,WeatherDisplay:10.37,2013-06-14 03:01:00,
2013-06-13 20:06:00,81.0,45.7,29.86,NW,312,1.2,1.2,29,0.00,CLR,,0.00,WeatherDisplay:10.37,2013-06-14 03:06:00,
2013-06-13 20:11:00,80.6,46.3,29.86,NNW,336,2.3,2.3,30,0.00,CLR,,0.00,WeatherDisplay:10.37,2013-06-14 03:11:00,
2013-06-13 20:16:00,80.1,46.7,29.86,NNW,339,1.2,1.2,31,0.00,CLR,,0.00,WeatherDisplay:10.37,2013-06-14 03:16:00,
2013-06-13 20:21:00,79.7,46.4,29.86,NNW,339,1.2,1.2,31,0.00,CLR,,0.00,WeatherDisplay:10.37,2013-06-14 03:21:00,
2013-06-13 20:26:00,79.2,46.8,29.86,NE,44,0.0,0.0,32,0.00,CLR,,0.00,WeatherDisplay:10.37,2013-06-14 03:26:00,
2013-06-13 20:31:00,78.8,47.3,29.86,NW,309,0.0,0.0,33,0.00,CLR,,0.00,WeatherDisplay:10.37,2013-06-14 03:31:00,
2013-06-13 20:36:00,78.3,47.6,29.87,NW,322,0.0,0.0,34,0.00,CLR,,0.00,WeatherDisplay:10.37,2013-06-14 03:36:00,
2013-06-13 20:41:00,77.9,48.0,29.86,NW,322,0.0,0.0,35,0.00,CLR,,0.00,WeatherDisplay:10.37,2013-06-14 03:41:00,
2013-06-13 20:46:00,77.5,47.7,29.87,NW,319,0.0,0.0,35,0.00,CLR,,0.00,WeatherDisplay:10.37,2013-06-14 03:46:00,
2013-06-13 20:51:00,77.2,47.4,29.87,WNW,302,0.0,0.0,35,0.00,CLR,,0.00,WeatherDisplay:10.37,2013-06-14 03:51:00,
2013-06-13 20:56:00,77.0,48.0,29.87,WNW,294,0.0,0.0,36,0.00,CLR,,0.00,WeatherDisplay:10.37,2013-06-14 03:56:00,
2013-06-13 21:01:00,76.7,47.7,29.87,WNW,294,1.2,1.2,36,0.00,CLR,,0.00,WeatherDisplay:10.37,2013-06-14 04:01:00,
2013-06-13 21:06:00,76.4,48.2,29.87,NNW,335,0.0,0.0,37,0.00,CLR,,0.00,WeatherDisplay:10.37,2013-06-14 04:06:00,
2013-06-13 21:11:00,76.1,47.9,29.87,NNW,333,0.0,0.0,37,0.00,CLR,,0.00,WeatherDisplay:10.37,2013-06-14 04:11:00,
2013-06-13 21:16:00,75.8,48.4,29.87,NNW,333,0.0,0.0,38,0.00,CLR,,0.00,WeatherDisplay:10.37,2013-06-14 04:16:00,
2013-06-13 21:21:00,75.5,48.1,29.87,NNW,333,0.0,0.0,38,0.00,CLR,,0.00,WeatherDisplay:10.37,2013-06-14 04:21:00,
2013-06-13 21:26:00,75.3,47.9,29.88,West,271,1.2,1.2,38,0.00,CLR,,0.00,WeatherDisplay:10.37,2013-06-14 04:26:00,
2013-06-13 21:31:00,75.1,47.8,29.88,NW,307,1.2,1.2,38,0.00,CLR,,0.00,WeatherDisplay:10.37,2013-06-14 04:31:00,
2013-06-13 21:36:00,75.0,48.4,29.88,NNW,333,1.2,0.0,39,0.00,CLR,,0.00,WeatherDisplay:10.37,2013-06-14 04:36:00,
2013-06-13 21:41:00,74.8,48.2,29.88,NNW,333,0.0,0.1,39,0.00,CLR,,0.00,WeatherDisplay:10.37,2013-06-14 04:41:00,
2013-06-13 21:46:00,74.4,48.5,29.88,NNW,333,0.0,0.0,40,0.00,CLR,,0.00,WeatherDisplay:10.37,2013-06-14 04:46:00,
2013-06-13 21:51:00,73.9,48.1,29.88,NNW,333,0.0,0.0,40,0.00,CLR,,0.00,WeatherDisplay:10.37,2013-06-14 04:51:00,
2013-06-13 21:56:00,73.4,48.3,29.88,NNW,333,0.0,0.0,41,0.00,CLR,,0.00,WeatherDisplay:10.37,2013-06-14 04:56:00,
2013-06-13 22:01:00,73.1,49.9,29.88,NNW,333,0.0,0.0,44,0.00,CLR,,0.00,WeatherDisplay:10.37,2013-06-14 05:01:00,
2013-06-13 22:07:00,72.6,49.4,29.88,NNW,333,0.0,0.0,44,0.00,CLR,,0.00,WeatherDisplay:10.37,2013-06-14 05:07:00,
2013-06-13 22:12:00,72.1,49.6,29.89,NNW,333,0.0,0.0,45,0.00,CLR,,0.00,WeatherDisplay:10.37,2013-06-14 05:12:00,
2013-06-13 22:17:00,71.6,49.7,29.88,NNW,333,0.0,0.0,46,0.00,CLR,,0.00,WeatherDisplay:10.37,2013-06-14 05:17:00,
2013-06-13 22:22:00,71.1,49.8,29.88,NNW,333,0.0,0.0,47,0.00,CLR,,0.00,WeatherDisplay:10.37,2013-06-14 05:22:00,
2013-06-13 22:27:00,70.6,49.4,29.88,NNW,333,0.0,0.0,47,0.00,CLR,,0.00,WeatherDisplay:10.37,2013-06-14 05:27:00,
2013-06-13 22:32:00,70.2,50.1,29.88,NNW,333,0.0,0.0,49,0.00,CLR,,0.00,WeatherDisplay:10.37,2013-06-14 05:32:00,
2013-06-13 22:37:00,69.8,49.2,29.88,NNW,333,0.0,0.0,48,0.00,CLR,,0.00,WeatherDisplay:10.37,2013-06-14 05:37:00,
2013-06-13 22:42:00,69.4,49.9,29.88,NNW,333,0.0,0.0,50,0.00,CLR,,0.00,WeatherDisplay:10.37,2013-06-14 05:42:00,
2013-06-13 22:47:00,69.0,49.0,29.89,NNW,333,0.0,0.0,49,0.00,CLR,,0.00,WeatherDisplay:10.37,2013-06-14 05:47:00,
2013-06-13 22:52:00,68.7,49.8,29.89,NNW,333,0.0,0.0,51,0.00,CLR,,0.00,WeatherDisplay:10.37,2013-06-14 05:52:00,
2013-06-13 22:57:00,68.4,49.6,29.88,NNW,333,0.0,0.0,51,0.00,CLR,,0.00,WeatherDisplay:10.37,2013-06-14 05:57:00,
2013-06-13 23:02:00,68.1,49.8,29.88,NNW,333,0.0,0.0,52,0.00,CLR,,0.00,WeatherDisplay:10.37,2013-06-14 06:02:00,
2013-06-13 23:07:00,67.9,50.1,29.88,NNW,333,0.0,0.0,53,0.00,CLR,,0.00,WeatherDisplay:10.37,2013-06-14 06:07:00,
2013-06-13 23:12:00,67.6,49.3,29.88,NNW,333,0.0,0.0,52,0.00,CLR,,0.00,WeatherDisplay:10.37,2013-06-14 06:12:00,
2013-06-13 23:17:00,67.4,49.2,29.89,NNW,333,0.0,0.0,52,0.00,CLR,,0.00,WeatherDisplay:10.37,2013-06-14 06:17:00,
2013-06-13 23:22:00,67.3,50.6,29.88,NNW,333,0.0,0.0,55,0.00,CLR,,0.00,WeatherDisplay:10.37,2013-06-14 06:22:00,
2013-06-13 23:27:00,67.1,49.9,29.88,NNW,333,0.0,0.0,54,0.00,CLR,,0.00,WeatherDisplay:10.37,2013-06-14 06:27:00,
2013-06-13 23:32:00,66.8,50.1,29.88,NNW,333,0.0,0.0,55,0.00,CLR,,0.00,WeatherDisplay:10.37,2013-06-14 06:32:00,
2013-06-13 23:37:00,66.6,49.9,29.88,NNW,333,0.0,0.0,55,0.00,CLR,,0.00,WeatherDisplay:10.37,2013-06-14 06:37:00,
2013-06-13 23:42:00,66.4,49.7,29.88,NNW,333,0.0,0.0,55,0.00,CLR,,0.00,WeatherDisplay:10.37,2013-06-14 06:42:00,
2013-06-13 23:47:00,66.2,50.0,29.88,NNW,333,0.0,0.0,56,0.00,CLR,,0.00,WeatherDisplay:10.37,2013-06-14 06:47:00,
2013-06-13 23:52:00,66.1,50.4,29.88,NNW,333,0.0,0.0,57,0.00,CLR,,0.00,WeatherDisplay:10.37,2013-06-14 06:52:00,
2013-06-13 23:57:00,66.0,49.8,29.88,NNW,333,0.0,0.0,56,0.00,CLR,,0.00,WeatherDisplay:10.37,2013-06-14 06:57:00,